Date_and_time,latitude,longitude,wind_speed,RelWindDirFrom,WindDirFrom,air_pressure,air_temperature,relative_humidity,Temp,platform_speed_wrt_ground,air_pressure_at_mean_sea_level,platform_orientation
2018-10-19 23:50,50.63043,-96.9807416666667,8.6,15.3,302,985.56,3.3,78,4.86,0.0,1012.78,90.0
2018-10-20 00:00,50.6304316666667,-96.9807433333333,8.8,13.3,301,985.83,3.2,76,4.85,0.0,1013.08,360.0
2018-10-20 00:10,50.6304316666667,-96.980745,8.6,13.3,307,986.00,3.1,77,4.85,0.0,1013.28,360.0
2018-10-20 00:20,50.6304316666667,-96.9807466666667,8.5,13.0,308,986.08,3.1,77,4.85,0.0,1013.47,360.0
2018-10-20 00:30,50.6304316666667,-96.9807466666667,6.8,11.3,317,986.26,3.1,75,4.84,0.0,1013.72,360.0
2018-10-20 00:40,50.63043,-96.9807466666667,6.8,10.6,320,986.47,3.4,70,4.84,0.0,1013.90,360.0
2018-10-20 00:50,50.63043,-96.9807483333333,6.0,10.5,331,986.64,3.6,67,4.84,0.0,1014.06,360.0
2018-10-20 01:00,50.63043,-96.9807483333333,9.2,14.1,330,986.60,3.7,57,4.83,0.0,1014.01,270.0
2018-10-20 01:10,50.63043,-96.9807483333333,11.3,19.3,329,986.61,3.6,53,4.82,0.0,1014.04,270.0
2018-10-20 01:20,50.63043,-96.9807483333333,14.2,21.5,333,986.50,3.4,51,4.82,0.0,1013.96,270.0
2018-10-20 01:30,50.63043,-96.9807483333333,14.7,24.8,334,986.56,3.2,50,4.80,0.0,1014.04,270.0
2018-10-20 01:40,50.63043,-96.9807483333333,17.9,29.4,337,986.44,3.1,48,4.77,0.0,1013.94,270.0
2018-10-20 01:50,50.6304316666667,-96.9807483333333,14.3,20.8,338,986.80,2.8,49,4.81,0.0,1014.32,270.0
2018-10-20 02:00,50.6304316666667,-96.98075,17.0,30.3,337,986.65,2.5,49,4.86,0.0,1014.19,291.5
2018-10-20 02:10,50.63044,-96.98075,15.2,25.1,335,986.79,2.3,50,4.86,0.0,1014.35,291.5
2018-10-20 02:20,50.6304383333333,-96.9807516666667,15.0,22.2,328,986.85,2.0,50,4.85,0.0,1014.42,291.5
2018-10-20 02:30,50.6304366666667,-96.980755,14.1,22.9,329,987.03,1.8,52,4.84,0.0,1014.60,291.5
2018-10-20 02:40,50.6304366666667,-96.9807533333333,13.3,21.1,333,987.23,1.7,53,4.79,0.0,1014.81,291.5
2018-10-20 02:50,50.630435,-96.9807516666667,13.3,19.4,328,987.36,1.5,54,4.74,0.0,1014.94,291.5
2018-10-20 03:00,50.6304333333333,-96.9807516666667,15.8,27.2,333,987.36,1.6,54,4.72,0.0,1014.95,270.0
2018-10-20 03:10,50.630435,-96.9807516666667,15.8,23.2,337,987.56,1.5,53,4.71,0.0,1015.17,270.0
2018-10-20 03:20,50.6304333333333,-96.9807416666667,18.1,27.3,338,987.48,1.3,52,4.76,0.0,1015.10,270.0
2018-10-20 03:30,50.6304433333333,-96.9807483333333,14.1,22.4,338,987.85,1.3,52,4.76,0.0,1015.49,270.0
2018-10-20 03:40,50.63044,-96.980745,14.8,23.1,341,987.93,1.2,51,4.75,0.0,1015.59,270.0
2018-10-20 03:50,50.6304383333333,-96.9807433333333,15.6,24.3,333,988.07,1.0,51,4.73,0.0,1015.76,270.0
2018-10-20 04:00,50.6304216666667,-96.98074,15.8,26.7,342,988.55,0.8,55,4.69,0.0,1016.27,131.7
2018-10-20 04:10,50.6304266666667,-96.98075,17.9,31.7,327,988.50,-0.1,65,4.67,0.0,1016.28,131.7
2018-10-20 04:20,50.6304283333333,-96.9807383333333,14.4,22.4,329,988.91,-0.4,68,4.66,0.0,1016.72,131.7
2018-10-20 04:30,50.6304333333333,-96.9807633333333,12.9,21.1,329,989.09,-0.4,67,4.65,0.0,1016.92,131.7
2018-10-20 04:40,50.6304316666667,-96.980745,14.5,24.0,327,989.13,-0.4,64,4.65,0.0,1016.97,131.7
2018-10-20 04:50,50.6304283333333,-96.9807416666667,14.8,28.1,320,989.15,-0.3,59,4.65,0.0,1016.98,131.7
2018-10-20 05:00,50.630425,-96.9807533333333,14.1,22.7,315,989.23,-0.3,55,4.64,0.0,1017.07,142.0
2018-10-20 05:10,50.6304316666667,-96.9807433333333,16.2,26.5,322,989.20,-0.3,53,4.64,0.0,1017.05,142.0
2018-10-20 05:20,50.6304316666667,-96.9807416666667,14.9,24.3,319,989.52,-0.4,52,4.64,0.0,1017.38,142.0
2018-10-20 05:30,50.630435,-96.9807416666667,17.3,26.4,318,989.53,-0.7,54,4.63,0.0,1017.42,142.0
2018-10-20 05:40,50.63042,-96.9807416666667,14.5,20.1,316,989.87,-1.1,58,4.61,0.0,1017.79,142.0
2018-10-20 05:50,50.6304283333333,-96.9807383333333,13.8,20.8,318,990.03,-1.2,57,4.60,0.0,1017.98,142.0
2018-10-20 06:00,50.6304266666667,-96.9807366666667,14.5,28.5,315,990.01,-1.0,56,4.58,0.0,1017.99,125.3
2018-10-20 06:10,50.6304283333333,-96.98074,16.6,24.6,321,989.95,-1.0,56,4.57,0.0,1017.94,125.3
2018-10-20 06:20,50.63043,-96.98074,15.4,22.5,319,990.16,-1.1,57,4.57,0.0,1018.16,125.3
2018-10-20 06:30,50.6304283333333,-96.9807416666667,14.0,23.1,316,990.43,-1.1,58,4.56,0.0,1018.44,125.3
2018-10-20 06:40,50.630435,-96.9807216666667,14.5,23.1,319,990.50,-1.2,59,4.56,0.0,1018.51,125.3
2018-10-20 06:50,50.6304316666667,-96.9807366666667,16.4,26.4,318,990.48,-1.2,60,4.57,0.0,1018.49,125.3
2018-10-20 07:00,50.6304333333333,-96.980735,17.4,27.4,315,990.54,-1.3,61,4.55,0.0,1018.56,14.5
2018-10-20 07:10,50.6304316666667,-96.9807366666667,16.6,24.6,317,990.65,-1.4,63,4.54,0.0,1018.68,14.5
2018-10-20 07:20,50.6304333333333,-96.9807383333333,14.9,21.6,316,990.84,-1.4,63,4.54,0.0,1018.90,14.5
2018-10-20 07:30,50.63043,-96.9807566666667,13.4,21.0,314,991.09,-1.4,62,4.53,0.0,1019.18,14.5
2018-10-20 07:40,50.63043,-96.9807566666667,12.7,20.7,315,991.35,-1.3,60,4.52,0.0,1019.44,14.5
2018-10-20 07:50,50.6304333333333,-96.98076,15.5,22.9,317,991.27,-1.2,60,4.51,0.0,1019.35,14.5
2018-10-20 08:00,50.6304333333333,-96.9807566666667,14.3,21.4,318,991.48,-1.4,64,4.50,0.0,1019.57,311.7
2018-10-20 08:10,50.6304316666667,-96.9807533333333,13.4,20.6,318,991.72,-1.4,63,4.48,0.0,1019.82,311.7
2018-10-20 08:20,50.6304316666667,-96.98075,15.6,25.4,317,991.67,-1.4,64,4.47,0.0,1019.78,311.7
2018-10-20 08:30,50.6304316666667,-96.9807466666667,16.2,26.6,321,991.83,-1.5,66,4.47,0.0,1019.94,311.7
2018-10-20 08:40,50.6304316666667,-96.9807516666667,17.7,25.8,324,991.88,-1.6,68,4.49,0.0,1020.01,311.7
2018-10-20 08:50,50.6304233333333,-96.9807433333333,16.3,25.6,323,992.24,-1.7,69,4.46,0.0,1020.39,311.7
2018-10-20 09:00,50.630425,-96.9807416666667,17.1,26.6,322,992.39,-1.9,70,4.43,0.0,1020.55,270.0
2018-10-20 09:10,50.6304266666667,-96.9807433333333,15.8,26.2,320,992.63,-1.9,71,4.43,0.0,1020.80,270.0
2018-10-20 09:20,50.63043,-96.980745,15.0,22.2,315,992.91,-2.1,73,4.45,0.0,1021.10,270.0
2018-10-20 09:30,50.63043,-96.980745,15.4,25.0,320,993.09,-2.3,76,4.41,0.0,1021.29,270.0
2018-10-20 09:40,50.6304316666667,-96.980745,13.9,20.9,324,993.47,-2.3,78,4.39,0.0,1021.67,270.0
2018-10-20 09:50,50.63043,-96.9807433333333,12.4,17.9,324,993.79,-2.3,79,4.39,0.0,1022.01,270.0
2018-10-20 10:00,50.6304316666667,-96.9807433333333,12.5,18.4,327,994.12,-2.4,83,4.38,0.0,1022.36,270.0
2018-10-20 10:10,50.6304316666667,-96.980745,12.1,18.2,326,994.29,-2.5,84,4.36,0.0,1022.54,270.0
2018-10-20 10:20,50.6304316666667,-96.980745,12.6,17.4,325,994.41,-2.6,87,4.35,0.0,1022.67,270.0
2018-10-20 10:30,50.6304316666667,-96.980745,11.5,18.3,327,994.56,-2.6,89,4.35,0.0,1022.83,270.0
2018-10-20 10:40,50.6304316666667,-96.9807433333333,9.6,13.7,326,994.87,-2.6,91,4.34,0.0,1023.15,270.0
2018-10-20 10:50,50.6304083333333,-96.98074,8.9,14.4,327,994.99,-2.5,93,4.34,0.0,1023.28,270.0
2018-10-20 11:00,50.630425,-96.980745,10.7,16.3,334,995.00,-2.5,94,4.34,0.0,1023.30,119.2
2018-10-20 11:10,50.6304283333333,-96.9807483333333,10.7,15.8,333,995.22,-2.4,92,4.33,0.0,1023.52,119.2
2018-10-20 11:20,50.630425,-96.980745,10.5,17.1,329,995.52,-2.5,92,4.32,0.0,1023.85,119.2
2018-10-20 11:30,50.6304266666667,-96.980745,10.2,14.4,329,995.67,-2.5,91,4.31,0.0,1024.00,119.2
2018-10-20 11:40,50.630425,-96.9807466666667,9.8,15.4,333,995.84,-2.4,90,4.29,0.0,1024.17,119.2
2018-10-20 11:50,50.630425,-96.9807466666667,10.3,15.3,325,995.99,-2.5,91,4.28,0.0,1024.34,119.2
2018-10-20 12:00,50.6304266666667,-96.9807466666667,10.6,15.5,322,996.17,-2.6,93,4.27,0.0,1024.53,90.0
2018-10-20 12:10,50.6304266666667,-96.9807483333333,9.3,13.9,319,996.42,-2.6,92,4.27,0.0,1024.79,90.0
2018-10-20 12:20,50.63043,-96.98076,9.0,13.0,317,996.66,-2.5,88,4.27,0.0,1025.03,90.0
2018-10-20 12:30,50.6304383333333,-96.98075,7.7,12.4,314,996.89,-2.6,87,4.27,0.0,1025.28,90.0
2018-10-20 12:40,50.63043,-96.98075,7.9,12.6,310,997.06,-2.6,85,4.27,0.0,1025.45,90.0
2018-10-20 12:50,50.6304266666667,-96.980745,8.4,11.3,308,997.13,-2.6,82,4.27,0.0,1025.52,90.0
2018-10-20 13:00,50.6304266666667,-96.9807483333333,7.7,11.2,303,997.40,-2.6,80,4.27,0.0,1025.79,192.6
2018-10-20 13:10,50.630425,-96.9807516666667,7.4,11.7,304,997.81,-2.5,79,4.26,0.0,1026.22,192.6
2018-10-20 13:20,50.6304233333333,-96.9807533333333,7.5,11.2,306,998.08,-2.4,79,4.26,0.0,1026.48,192.6
2018-10-20 13:30,50.6304316666667,-96.9807633333333,9.7,13.6,310,998.05,-2.3,78,4.24,0.0,1026.45,192.6
2018-10-20 13:40,50.6304266666667,-96.98076,7.7,11.9,309,998.30,-2.4,79,4.25,0.0,1026.71,192.6
2018-10-20 13:50,50.630425,-96.9807616666667,6.5,11.9,308,998.45,-2.3,80,4.27,0.0,1026.87,192.6
2018-10-20 14:00,50.630425,-96.9807616666667,6.7,10.1,311,998.63,-2.2,78,4.28,0.0,1027.04,270.0
2018-10-20 14:10,50.630425,-96.9807616666667,7.6,11.1,309,998.69,-2.1,77,4.28,0.0,1027.10,270.0
2018-10-20 14:20,50.6304233333333,-96.9807616666667,8.0,13.4,307,998.78,-2.0,77,4.28,0.0,1027.20,270.0
2018-10-20 14:30,50.6304233333333,-96.98076,8.9,13.4,309,998.90,-1.9,79,4.27,0.0,1027.31,270.0
2018-10-20 14:40,50.6304233333333,-96.98076,6.6,10.3,310,999.21,-1.8,79,4.25,0.0,1027.63,270.0
2018-10-20 14:50,50.630455,-96.9807633333333,8.9,14.5,312,999.15,-1.5,76,4.24,0.0,1027.55,270.0
2018-10-20 15:00,50.6304283333333,-96.9807516666667,8.4,13.3,313,999.12,-1.3,74,4.24,0.0,1027.50,270.0
2018-10-20 15:10,50.630435,-96.9807633333333,9.3,13.6,317,999.05,-1.1,72,4.25,0.0,1027.42,270.0
2018-10-20 15:20,50.630425,-96.98075,10.3,16.0,323,999.14,-0.7,70,4.26,0.0,1027.49,270.0
2018-10-20 15:30,50.6304216666667,-96.980745,10.1,15.0,323,999.28,-0.6,70,4.26,0.0,1027.62,270.0
2018-10-20 15:40,50.6304183333333,-96.98075,11.6,17.9,322,999.16,-0.4,68,4.26,0.0,1027.49,270.0
2018-10-20 15:50,50.6304183333333,-96.9807516666667,9.3,12.6,319,999.35,-0.2,67,4.26,0.0,1027.66,270.0
2018-10-20 16:00,50.6304166666667,-96.980765,10.1,14.0,314,999.44,-0.1,66,4.26,0.0,1027.75,216.6
2018-10-20 16:10,50.63041,-96.9807716666667,9.9,16.6,319,999.48,-0.2,66,4.26,0.0,1027.79,216.6
2018-10-20 16:20,50.6304083333333,-96.9807666666667,10.1,14.4,323,999.59,-0.1,65,4.26,0.0,1027.88,216.6
2018-10-20 16:30,50.630415,-96.9807583333333,10.2,14.7,328,999.58,0.4,64,4.27,0.0,1027.85,216.6
2018-10-20 16:40,50.6304183333333,-96.9807516666667,9.4,13.3,315,999.64,0.2,63,4.27,0.0,1027.91,216.6
2018-10-20 16:50,50.6304333333333,-96.98075,9.3,13.9,315,999.69,0.3,63,4.27,0.0,1027.94,216.6
2018-10-20 17:00,50.63042,-96.98076,7.8,13.3,316,999.87,0.6,61,4.27,0.0,1028.10,360.0
2018-10-20 17:10,50.63042,-96.9807583333333,8.5,12.7,315,999.86,0.7,61,4.27,0.0,1028.06,360.0
2018-10-20 17:20,50.6304183333333,-96.9807616666667,8.9,13.9,316,999.89,0.6,60,4.27,0.0,1028.10,360.0
2018-10-20 17:30,50.6304183333333,-96.9807566666667,6.4,10.3,317,1000.03,0.6,61,4.28,0.0,1028.23,360.0
2018-10-20 17:40,50.6304183333333,-96.980755,8.6,12.6,327,999.95,0.7,60,4.28,0.0,1028.13,360.0
2018-10-20 17:50,50.6304516666667,-96.9807733333333,8.5,12.6,332,999.99,0.7,59,4.28,0.0,1028.16,360.0
2018-10-20 18:00,50.6304166666667,-96.9807566666667,6.8,11.1,315,1000.04,0.6,59,4.28,0.0,1028.23,194.5
2018-10-20 18:10,50.6304316666667,-96.9807283333333,6.2,10.6,325,1000.00,0.7,58,4.29,0.0,1028.17,194.5
2018-10-20 18:20,50.630425,-96.9807383333333,5.8,11.6,291,999.96,0.7,57,4.30,0.0,1028.11,194.5
2018-10-20 18:30,50.6304233333333,-96.9807416666667,4.9,9.6,313,999.95,1.0,55,4.30,0.0,1028.09,194.5
2018-10-20 18:40,50.6304216666667,-96.98074,5.7,10.7,294,999.93,0.9,55,4.30,0.0,1028.08,194.5
2018-10-20 18:50,50.63042,-96.98074,6.5,9.9,302,999.78,0.8,56,4.31,0.0,1027.91,194.5
2018-10-20 19:00,50.63042,-96.9807433333333,3.9,8.5,278,999.73,1.3,52,4.32,0.0,1027.83,66.4
2018-10-20 19:10,50.6304133333333,-96.9807783333333,2.9,7.0,318,999.60,2.0,51,4.32,0.0,1027.66,66.4
2018-10-20 19:20,50.6304266666667,-96.9807466666667,5.2,9.4,305,999.41,1.6,52,4.34,0.0,1027.49,66.4
2018-10-20 19:30,50.6304116666667,-96.9807516666667,5.8,9.0,312,999.38,1.4,52,4.36,0.0,1027.46,66.4
2018-10-20 19:40,50.630415,-96.98075,4.3,8.3,325,999.33,1.8,50,4.37,0.0,1027.39,66.4
2018-10-20 19:50,50.6304183333333,-96.98075,1.1,6.6,265,999.27,1.9,48,4.38,0.0,1027.32,66.4
2018-10-20 20:00,50.6304183333333,-96.9807483333333,3.3,7.9,22,999.20,2.7,48,4.38,0.0,1027.20,167.4
2018-10-20 20:10,50.63042,-96.98075,6.3,8.1,46,999.18,1.9,54,4.38,0.0,1027.23,167.4
2018-10-20 20:20,50.63042,-96.98075,4.6,7.3,45,999.06,1.8,52,4.38,0.0,1027.09,167.4
2018-10-20 20:30,50.63042,-96.9807483333333,2.9,5.7,55,998.94,2.4,52,4.38,0.0,1026.95,167.4
2018-10-20 20:40,50.6304233333333,-96.98075,2.2,4.0,73,998.82,3.2,49,4.39,0.0,1026.78,167.4
2018-10-20 20:50,50.6304233333333,-96.98075,5.2,7.3,97,998.67,4.0,51,4.39,0.0,1026.57,167.4
2018-10-20 21:00,50.6304416666667,-96.9807483333333,5.5,7.7,88,998.58,3.8,50,4.40,0.0,1026.44,13.3
2018-10-20 21:10,50.6304233333333,-96.9807633333333,5.5,7.3,90,998.50,3.8,51,4.42,0.0,1026.38,13.3
2018-10-20 21:20,50.6304283333333,-96.98075,5.2,7.7,91,998.46,3.6,51,4.42,0.0,1026.37,13.3
2018-10-20 21:30,50.63043,-96.98075,4.9,7.0,99,998.44,3.7,51,4.42,0.0,1026.31,13.3
2018-10-20 21:40,50.6304316666667,-96.98075,4.6,6.0,101,998.34,3.7,51,4.43,0.0,1026.21,13.3
2018-10-20 21:50,50.63043,-96.9807483333333,5.5,7.2,111,998.26,3.1,54,4.44,0.0,1026.12,13.3
2018-10-20 22:00,50.6304283333333,-96.9807466666667,7.1,9.2,118,998.17,2.2,58,4.44,0.0,1026.11,38.0
2018-10-20 22:10,50.6304283333333,-96.9807466666667,6.8,8.6,131,997.93,1.7,59,4.44,0.0,1025.90,38.0
2018-10-20 22:20,50.6304283333333,-96.9807483333333,6.4,7.9,143,997.91,1.1,58,4.44,0.0,1025.88,38.0
2018-10-20 22:30,50.63043,-96.9807483333333,7.5,9.6,144,997.80,0.9,59,4.44,0.0,1025.73,38.0
2018-10-20 22:40,50.6304333333333,-96.9807383333333,8.0,9.8,149,997.76,0.8,60,4.43,0.0,1025.66,38.0
2018-10-20 22:50,50.6304316666667,-96.980735,7.8,9.3,150,997.54,0.8,60,4.42,0.0,1025.44,38.0
2018-10-20 23:00,50.630415,-96.9807583333333,7.2,9.2,156,997.55,1.0,58,4.42,0.0,1025.44,270.0
2018-10-20 23:10,50.6304466666667,-96.98074,7.2,9.2,157,997.34,0.9,61,4.42,0.0,1025.24,270.0
2018-10-20 23:20,50.63043,-96.980735,8.0,10.0,168,997.39,0.9,61,4.42,0.0,1025.28,270.0
2018-10-20 23:30,50.6304333333333,-96.98074,8.4,10.1,171,997.17,0.9,62,4.41,0.0,1025.06,270.0
